This is the latest recevied weather packets stored in our database for station/object KD2DXJ. If no packets are shown the sender has not sent any weather packets the latest 10 day(s).
| Time | Temp. | Humidity | Pressure | Rain* | Wind** | Luminosity | Snow |
|---|---|---|---|---|---|---|---|
| 1777832643 | 12.22° C | 41% | 1009.6 hPa | 0 mm | - | 746 W/m² | - |
| 1777832339 | 12.78° C | 44% | 1009.5 hPa | 0 mm | - | 256 W/m² | - |
| 1777832036 | 11.67° C | 42% | 1009.6 hPa | 0 mm | - | 768 W/m² | - |
| 1777831733 | 12.22° C | 40% | 1009.6 hPa | 0 mm | - | 781 W/m² | - |
| 1777831431 | 11.67° C | 39% | 1009.6 hPa | 0 mm | - | 270 W/m² | - |
| 1777831127 | 12.22° C | 40% | 1009.7 hPa | 0 mm | - | 354 W/m² | - |
| 1777830825 | 11.67° C | 44% | 1009.6 hPa | 0 mm | - | 268 W/m² | - |
| 1777830521 | 10.56° C | 42% | 1009.9 hPa | 0 mm | - | 711 W/m² | - |
| 1777830220 | 10.56° C | 41% | 1009.8 hPa | 0 mm | - | 186 W/m² | - |
| 1777829920 | 11.11° C | 41% | 1009.9 hPa | 0 mm | - | 189 W/m² | - |
| 1777829616 | 11.11° C | 42% | 1010.2 hPa | 0 mm | - | 391 W/m² | - |
| 1777829313 | 11.11° C | 39% | 1010 hPa | 0 mm | - | 261 W/m² | - |
| 1777829011 | 11.11° C | 41% | 1010 hPa | 0 mm | - | 254 W/m² | - |
| 1777828706 | 11.67° C | 37% | 1010.2 hPa | 0 mm | - | 244 W/m² | - |
| 1777828404 | 11.67° C | 38% | 1009.9 hPa | 0 mm | - | 443 W/m² | - |
| 1777828101 | 10.56° C | 45% | 1010.2 hPa | 0 mm | - | 739 W/m² | - |
| 1777827797 | 10° C | 41% | 1010 hPa | 0 mm | - | 223 W/m² | - |
| 1777827494 | 10.56° C | 42% | 1010.3 hPa | 0 mm | - | 184 W/m² | - |
| 1777827192 | 10.56° C | 42% | 1010.3 hPa | 0 mm | - | 249 W/m² | - |
| 1777826888 | 10.56° C | 44% | 1010.3 hPa | 0 mm | - | 216 W/m² | - |
| 1777826586 | 10° C | 42% | 1010.4 hPa | 0 mm | - | 189 W/m² | - |
| 1777826281 | 10° C | 47% | 1010.4 hPa | 0 mm | - | 249 W/m² | - |
| 1777825980 | 10.56° C | 44% | 1010.6 hPa | 0 mm | - | 205 W/m² | - |
| 1777825676 | 10° C | 44% | 1010.5 hPa | 0 mm | - | 208 W/m² | - |
| 1777825374 | 10.56° C | 45% | 1010.5 hPa | 0 mm | - | 241 W/m² | - |
* Rain latest hour (hover to see other rain measurements)
** Current wind speed in m/s (hover to see current wind gust speed)